AirNav   Everest Fuels
 
 1478 users online  

5FL5 Palm Beach County Judicial Center Heliport
West Palm Beach, Florida, USA

GOING TO WEST PALM BEACH?


FAA INFORMATION EFFECTIVE 16 JULY 2020

Location

FAA Identifier: 5FL5
Lat/Long: 26-42-55.4700N 080-03-15.8400W
26-42.924500N 080-03.264000W
26.7154083,-80.0544000
(estimated)
Elevation: 297 ft. / 91 m (estimated)
Variation: 05W (1995)
Time zone: UTC -4 (UTC -5 during Standard Time)
Zip code: 33401

Heliport Operations

Heliport use: Private use. Permission required prior to landing
Activation date: 08/1996
Control tower: no
ARTCC: MIAMI CENTER
FSS: MIAMI FLIGHT SERVICE STATION
Attendance: UNATNDD
Wind indicator: lighted
Segmented circle: no
Lights: FOR PERIMETER LGTS CALL 407-355-2255.

Heliport Communications

WX ASOS at PBI (2.9 nm SW): 123.75 (561-683-2548)
WX AWOS-3PT at LNA (8 nm S): 119.925 (561-964-0308)
WX AWOS-3 at F45 (12 nm NW): 119.975 (561-630-6932)

Nearby radio navigation aids

VOR radial/distance  VOR name  Freq  Var
PBIr042/2.7PALM BEACH VORTAC115.7003W
PHKr097/34.4PAHOKEE VOR/DME115.4000E
FLLr015/39.0FORT LAUDERDALE VOR/DME114.4006W

 
NDB name  Hdg/Dist  Freq  Var  ID
UNITED133/19.040505WUTX ..- - -..-

Heliport Services

Runway Information

Helipad H1

Dimensions: 40 x 40 ft. / 12 x 12 m
Surface: concrete
ROOFTOP.
Runway edge lights: PERI
Latitude: 26-42.924500N
Longitude: 080-03.264000W
Elevation: 297.0 ft.
Traffic pattern: leftleft

Heliport Ownership and Management from official FAA records

Ownership: Privately-owned
Owner: PALM BEACH COUNTY
215 N OLIVE AVE, SUITE 118
WEST PALM BEACH, FL 33401
Phone 561-355-4131
Manager: ERIKA CLANCY
215 N OLIVE AVE, SUITE 118
WEST PALM BEACH, FL 33401
Phone 561-355-4131

Additional Remarks

FOR CD CTC PALM BEACH APCH AT 561-275-1430

Instrument Procedures

There are no published instrument procedures at 5FL5.

Some nearby airports with instrument procedures:

KPBI - Palm Beach International Airport (3 nm SW)
KLNA - Palm Beach County Park Airport (8 nm S)
F45 - North Palm Beach County General Aviation Airport (12 nm NW)
06FA - William P Gwinn Airport (19 nm NW)
KBCT - Boca Raton Airport (20 nm S)
 
Loc | Ops | Rwys | IFR | FBO | Links
Com | Nav | Svcs | Stats | Notes

Reliance Aviation
AirBoss

 
Area around 5FL5 (Palm Beach County Judicial Center Heliport)
 
Road maps at: MapQuest Bing Google
 
Aerial photo
No photo
 
Sectional chart

 
Airport distance calculator
Flying to Palm Beach County Judicial Center Heliport? Find the distance to fly.

From to 5FL5

Sunrise and sunset
Times for 07-Aug-2020
 Local
(UTC-4)
 Zulu
(UTC)
Morning civil twilight06:2510:25
Sunrise06:4910:49
Sunset20:0200:02
Evening civil twilight20:2700:27

Current date and time
Zulu (UTC)  07-Aug-2020 16:42:28
Local (UTC-4)  07-Aug-2020 12:42:28
 
METAR
KPBI 
3nm SW 
071553Z 06004KT 10SM SCT027 SCT065 SCT240 31/26 A3011 RMK AO2 RAB1456E46 SLP194 P0005 T03110256 $
KLNA 
8nm S 
071615Z AUTO 09006KT 10SM CLR 33/26 A3010 RMK AO2 T03250256 PNO
KF45 
12nm NW 
071600Z AUTO 34004KT SCT032 BKN045 32/24 A3011 RMK AO2
TAF
KPBI 
3nm SW 
071451Z 0715/0812 VRB03KT P6SM SCT025 SCT110 TEMPO 0715/0717 VRB10KT P6SM -TSRA BKN050CB FM071700 09008KT P6SM VCTS SCT025CB BKN045 FM080200 VRB04KT P6SM FEW040 SCT100
NOTAMs
Click for the latest NOTAMs
NOTAMs are issued by the DoD/FAA and will open in a separate window not controlled by AirNav.

 

 
 

Would you like to see your business listed on this page?

 If your business provides an interesting product or service to pilots, flight crews, aircraft, or users of the Palm Beach County Judicial Center Heliport, you should consider listing it here.  To start the listing process, click on the button below
 
Add a business
 

Other Pages about Palm Beach County Judicial Center Heliport

Update a link
 
Copyright © AirNav, LLC. All rights reserved. Privacy Policy  Contact